Location: Melbourne
(37.8170°S, 144.9670°E)
Time: 03:21:39
(UTC+10:00)

CZ-3 R/B - Visible Passes

Search period start: 27 June 2016 00:00
Search period end: 07 July 2016 00:00
Orbit: 213 x 10965 km, 28.5° (Epoch: 25 June)

Date Brightness Start Highest point End Pass type
(mag) Time Alt. Az. Time Alt. Az. Time Alt. Az.
27 Jun 4.9 02:52:01 10° W 03:55:06 42° NW 04:08:27 10° NNE visible
27 Jun 6.3 19:33:27 10° NW 20:36:09 66° NNE 21:07:08 54° ENE visible
27 Jun 5.2 23:44:58 10° W 01:37:37 36° NE 01:45:22 10° ENE visible
28 Jun 5.0 05:14:44 21° WNW 05:16:06 21° WNW 05:27:38 10° NNW visible
28 Jun 6.6 17:08:21 10° N 17:46:45 40° NE 18:49:25 19° E visible
28 Jun 6.1 21:00:52 10° WNW 22:20:48 74° N 22:26:26 73° NNE visible
29 Jun 4.9 01:28:57 10° W 02:57:00 46° N 03:08:16 10° NE visible
29 Jun 6.4 18:30:14 10° NW 19:19:25 58° NE 20:08:26 39° E visible
29 Jun 5.6 22:32:20 10° WNW 00:39:05 21° ENE 00:42:49 10° ENE visible
30 Jun 5.1 03:20:26 10° WSW 04:16:07 33° NW 04:28:52 10° N visible
30 Jun 6.4 16:08:10 10° N 16:38:01 29° ENE 17:43:40 10° ESE visible
30 Jun 6.2 19:54:47 10° NW 20:59:41 71° NNE 21:27:12 60° ENE visible
01 Jul 5.2 00:09:30 10° W 01:57:57 37° NNE 02:06:21 10° NE visible
01 Jul 5.2 05:34:57 13° WNW 05:34:57 13° WNW 05:43:39 10° NW visible
01 Jul 6.5 17:27:22 10° NNW 18:05:30 48° NE 19:08:47 24° E visible
01 Jul 6.0 21:22:21 10° WNW 22:44:43 75° N 22:45:41 75° N visible
02 Jul 5.0 01:54:01 10° W 03:16:33 40° NNW 03:27:46 10° NNE visible
02 Jul 6.4 18:49:31 10° NW 19:39:28 64° NNE 20:27:01 43° E visible
02 Jul 5.6 22:54:02 10° W 00:57:57 23° NE 01:02:37 10° ENE visible
03 Jul 5.2 04:34:52 25° NW 04:34:52 25° NW 04:46:15 10° NNW visible
03 Jul 6.4 16:24:48 10° N 16:54:22 37° NE 18:08:11 10° ESE visible
03 Jul 6.2 20:14:05 10° WNW 21:21:10 74° NNE 21:44:58 64° ENE visible
04 Jul 5.2 00:31:27 10° W 02:16:01 36° NNE 02:24:44 10° NE visible
04 Jul 6.4 17:44:39 10° NNW 18:22:28 55° NE 19:25:51 27° E visible
04 Jul 6.0 21:41:39 10° WNW 23:56:59 - ENE 23:02:39 74° NNW visible
05 Jul 5.2 02:16:34 10° WSW 03:33:49 33° NNW 03:44:32 10° N visible
05 Jul 6.3 19:06:48 10° NW 19:57:40 69° NNE 20:43:18 47° E visible
05 Jul 5.5 23:13:18 10° W 01:14:32 25° NE 01:19:48 10° NE visible
06 Jul 5.3 04:51:20 17° NW 04:51:20 17° NW 05:00:00 10° NNW visible
06 Jul 6.3 16:40:03 10° NNW 17:08:52 44° NE 18:23:48 13° E visible
06 Jul 6.2 20:31:15 10° WNW 21:40:11 75° N 22:00:29 68° NE visible
